Starlink 11723

operational
NORAD ID: 64075 Int'l Des: 2025-107 Owner: SPXS Country: US Constellation: starlink
LEOCIRCULAR

Über Starlink 11723

Beschreibung wird geladen...

Live-Position

3D-Globus wird geladen...

Nächste Überflüge

Höhenverlauf

Altitude vs Time

uPlot chart will show altitude changes over time

Zweizeiliger Elementsatz

1 64075U 25107M 26063.19995508 .00249219 00000-0 18827-2 0 9995
2 64075 43.0001 131.4122 0001054 261.5930 98.4818 15.70907929 46436
Epoch: 4. März 2026 • Age: 23 hours

Aktueller Status

Höhe 366.8 km
Geschwindigkeit 7.69 km/s
Subsatellitenpunkt -40.50°S, 129.87°W
Startdatum 21. Mai 2025
Alter 0.7 years
Typ internet

Technische Details

Klassifizierung Payload
Masse 960.00 kg
Trockenmasse 910.00 kg
Gesamtmasse 960.00 kg
Länge 0.30 m
Durchmesser 4.10 m
Spannweite 29.00 m
Form Box + pan
Hersteller SPXS
Bus-Typ Starlink V2MD
Phasenstatus In Orbit
Besitzer/Staat SPXS/US

Große Konstellationen

Loading constellations...